Weather in Palitsy

Russia / Pskov Oblast     58°01′43″N   28°40′03″E
temp.,
°C
wind,
m/s
gust,
m/s
humid.,
%
clouds,
%
prec.,
mm/h
press.,
hPa
HPBL,
m
11 may, tue
tue1100:00+11s31379100 0.0 1023410
03:00+9sse31290100 0.0 1024302
06:00+9sse3119055 0.0 1024264
09:00+15s4962100 0.0 1025484
12:00+19s574756 0.0 10241048
15:00+21s46395 0.0 10231314
18:00+21sse46485 0.0 10231203
21:00+14se39745 0.0 1023178
12 may, wed
wed1200:00+11se28780 0.0 1023138
03:00+9se25821 0.0 102491
06:00+9se26825 0.0 1024130
09:00+16sse35630 0.0 1023408
12:00+21se46520 0.0 10221337
15:00+22se5747100 0.0 10212128
18:00+21ese48540 0.0 10201560
21:00+15ene22790 0.0 101920
13 may, thu
thu1300:00+14ne2881100 0.0 1017168
03:00+13ene3889100 0.1 1015205
06:00+13ese4109286 0.2 1015715
09:00+14se58642 0.3 1015847
12:00+17ese595062 0.0 10141727
15:00+18ese595379 0.2 10131976
18:00+16ese4864100 0.3 10121170
21:00+12e3888100 0.7 1012422
14 may, fri
fri1400:00+9ese259739 0.0 1012113
03:00+7se23960 0.0 101268
06:00+7ese2893100 0.0 1012199
09:00+13se4970100 0.0 1011798
12:00+13se51078100 0.1 1011892
15:00+13ese597798 0.5 1011825
18:00+14se4979100 0.1 1009829
21:00+12ene269559 0.6 1009190
15 may, sat
sat1500:00+10ene2598100 0.0 100798
03:00+10ene2398100 0.0 100656
06:00+11ene2497100 0.3 1005134
09:00+13ene2396100 0.9 1004181
12:00+18e227691 0.0 1003751
15:00+19ssw127342 2.0 1002821
18:00+17w3486100 3.1 1002555
21:00+13w3996100 6.4 1002339